Location: York
(31.8935°S, 116.7682°E)
Time: 00:42:26
(UTC+08:00)

ISS - Pass Details

Date: 13 December 2021
Orbit: 413 x 422 km, 51.6° (Epoch: 20 January)

Event Time Altitude Azimuth Distance (km) Brightness Sun altitude
Rises 21:34:11 0° 277° (W) 2,363 0.5 -23.9°
Reaches altitude 10° 21:36:54 10° 253° (WSW) 1,504 -0.2 -24.2°
Maximum altitude 21:39:03 16° 214° (SSW) 1,207 -0.5 -24.5°
Drops below altitude 10° 21:41:12 10° 174° (S) 1,511 -0.4 -24.8°
Sets 21:43:56 0° 151° (SSE) 2,380 0.4 -25.1°
